Météo par heure à Alinowo

Ce jour, 15 Mai, Samedi

Heure Température Précipitation Vent Pression Humidité
00:00 +10°C° 0 mm 4 m/s 745 mmHg 83%
01:00 +10°C° 0 mm 4 m/s 745 mmHg 82%
02:00 +8°C° 0 mm 4 m/s 746 mmHg 83%
03:00 +8°C° 0 mm 4 m/s 746 mmHg 84%
04:00 +7°C° 0 mm 4 m/s 746 mmHg 85%
05:00 +8°C° 0 mm 4 m/s 746 mmHg 81%
06:00 +10°C° 0 mm 4 m/s 746 mmHg 78%
07:00 +10°C° 0 mm 5 m/s 747 mmHg 75%
08:00 +12°C° 0 mm 4 m/s 747 mmHg 71%
09:00 +14°C° 0 mm 4 m/s 747 mmHg 67%
10:00 +15°C° 0 mm 4 m/s 747 mmHg 63%
11:00 +17°C° 0 mm 3 m/s 747 mmHg 60%
12:00 +18°C° 0 mm 3 m/s 746 mmHg 58%
13:00 +19°C° 0 mm 2 m/s 746 mmHg 55%
14:00 +18°C° 0.2 mm 2 m/s 746 mmHg 57%
15:00 +18°C° 0.2 mm 2 m/s 746 mmHg 59%
16:00 +18°C° 0.2 mm 2 m/s 746 mmHg 61%
17:00 +17°C° 0.2 mm 2 m/s 746 mmHg 66%
18:00 +16°C° 0.2 mm 2 m/s 745 mmHg 71%
19:00 +15°C° 0.2 mm 2 m/s 745 mmHg 77%
20:00 +14°C° 0.6 mm 2 m/s 745 mmHg 83%
21:00 +13°C° 0.6 mm 2 m/s 745 mmHg 88%
22:00 +12°C° 0.6 mm 1 m/s 745 mmHg 94%
23:00 +12°C° 0.1 mm 1 m/s 745 mmHg 94%

Demain, 16 Mai, Dimanche

Heure Température Précipitation Vent Pression Humidité
00:00 +12°C° 0.1 mm 1 m/s 745 mmHg 94%
01:00 +12°C° 0.1 mm 2 m/s 745 mmHg 94%
02:00 +10°C° 0.2 mm 2 m/s 745 mmHg 94%
03:00 +10°C° 0.2 mm 2 m/s 745 mmHg 95%
04:00 +9°C° 0.2 mm 2 m/s 745 mmHg 95%
05:00 +10°C° 0 mm 2 m/s 745 mmHg 92%
06:00 +11°C° 0 mm 3 m/s 745 mmHg 89%
07:00 +12°C° 0 mm 3 m/s 745 mmHg 86%
08:00 +13°C° 0 mm 3 m/s 745 mmHg 79%
09:00 +14°C° 0 mm 3 m/s 745 mmHg 73%
10:00 +16°C° 0 mm 3 m/s 745 mmHg 67%
11:00 +17°C° 0.1 mm 3 m/s 745 mmHg 64%
12:00 +17°C° 0.1 mm 3 m/s 745 mmHg 61%
13:00 +17°C° 0.1 mm 4 m/s 744 mmHg 58%
14:00 +17°C° 0 mm 3 m/s 744 mmHg 59%
15:00 +17°C° 0 mm 3 m/s 744 mmHg 60%
16:00 +17°C° 0 mm 2 m/s 744 mmHg 61%
17:00 +16°C° 0.1 mm 2 m/s 744 mmHg 66%
18:00 +15°C° 0.1 mm 1 m/s 744 mmHg 71%
19:00 +14°C° 0.1 mm 1 m/s 744 mmHg 76%
20:00 +13°C° 0 mm 1 m/s 744 mmHg 79%
21:00 +12°C° 0 mm 1 m/s 744 mmHg 82%
22:00 +11°C° 0 mm 1 m/s 744 mmHg 85%
23:00 +10°C° 0 mm 2 m/s 744 mmHg 86%

Après-demain, 17 Mai, Lundi

Heure Température Précipitation Vent Pression Humidité
00:00 +9°C° 0 mm 2 m/s 744 mmHg 88%
01:00 +9°C° 0 mm 2 m/s 744 mmHg 90%
02:00 +8°C° 0 mm 2 m/s 744 mmHg 91%
03:00 +8°C° 0 mm 2 m/s 744 mmHg 92%
04:00 +8°C° 0 mm 2 m/s 744 mmHg 93%
05:00 +9°C° 0 mm 2 m/s 744 mmHg 89%
06:00 +11°C° 0 mm 3 m/s 744 mmHg 85%
07:00 +12°C° 0 mm 3 m/s 744 mmHg 81%
08:00 +13°C° 0.2 mm 3 m/s 744 mmHg 78%
09:00 +14°C° 0.2 mm 4 m/s 744 mmHg 75%
10:00 +15°C° 0.2 mm 4 m/s 744 mmHg 72%
11:00 +15°C° 0.4 mm 4 m/s 744 mmHg 70%
12:00 +17°C° 0.4 mm 4 m/s 744 mmHg 69%
13:00 +17°C° 0.4 mm 4 m/s 744 mmHg 68%
14:00 +17°C° 0.3 mm 4 m/s 744 mmHg 69%
15:00 +15°C° 0.3 mm 4 m/s 744 mmHg 70%
16:00 +15°C° 0.3 mm 4 m/s 744 mmHg 72%
17:00 +14°C° 0.3 mm 4 m/s 744 mmHg 77%
18:00 +13°C° 0.3 mm 3 m/s 744 mmHg 82%
19:00 +12°C° 0.3 mm 3 m/s 744 mmHg 87%
20:00 +11°C° 0 mm 3 m/s 744 mmHg 90%
21:00 +10°C° 0 mm 3 m/s 744 mmHg 92%
22:00 +9°C° 0 mm 3 m/s 745 mmHg 94%
23:00 +9°C° 0 mm 3 m/s 745 mmHg 94%

18 Mai, Mardi

Heure Température Précipitation Vent Pression Humidité
00:00 +7°C° 0 mm 4 m/s 745 mmHg 95%
01:00 +7°C° 0 mm 4 m/s 745 mmHg 95%
02:00 +6°C° 0 mm 4 m/s 745 mmHg 96%
03:00 +6°C° 0 mm 4 m/s 745 mmHg 96%
04:00 +6°C° 0 mm 4 m/s 745 mmHg 97%
05:00 +7°C° 0 mm 4 m/s 745 mmHg 94%
06:00 +8°C° 0 mm 5 m/s 745 mmHg 92%
07:00 +9°C° 0 mm 5 m/s 745 mmHg 90%
08:00 +10°C° 0 mm 6 m/s 746 mmHg 85%
09:00 +11°C° 0 mm 6 m/s 746 mmHg 80%
10:00 +13°C° 0 mm 6 m/s 746 mmHg 75%
11:00 +13°C° 0.2 mm 6 m/s 746 mmHg 72%
12:00 +14°C° 0.2 mm 6 m/s 746 mmHg 69%
13:00 +15°C° 0.2 mm 6 m/s 746 mmHg 66%
14:00 +15°C° 0.2 mm 6 m/s 746 mmHg 67%
15:00 +15°C° 0.2 mm 6 m/s 746 mmHg 67%
16:00 +15°C° 0.2 mm 6 m/s 747 mmHg 68%
17:00 +14°C° 0.2 mm 5 m/s 747 mmHg 73%
18:00 +12°C° 0.2 mm 4 m/s 747 mmHg 78%
19:00 +11°C° 0.2 mm 3 m/s 747 mmHg 83%
20:00 +10°C° 0 mm 3 m/s 747 mmHg 85%
21:00 +9°C° 0 mm 3 m/s 748 mmHg 87%
22:00 +8°C° 0 mm 3 m/s 748 mmHg 89%
23:00 +8°C° 0 mm 3 m/s 748 mmHg 90%

19 Mai, Mercredi

Heure Température Précipitation Vent Pression Humidité
00:00 +7°C° 0 mm 3 m/s 749 mmHg 92%
01:00 +7°C° 0 mm 3 m/s 749 mmHg 93%
02:00 +7°C° 0 mm 3 m/s 749 mmHg 94%
03:00 +5°C° 0 mm 3 m/s 749 mmHg 95%
04:00 +5°C° 0 mm 3 m/s 749 mmHg 95%
05:00 +6°C° 0 mm 4 m/s 749 mmHg 91%
06:00 +8°C° 0 mm 4 m/s 750 mmHg 87%
07:00 +9°C° 0 mm 5 m/s 750 mmHg 83%
08:00 +10°C° 0 mm 5 m/s 750 mmHg 75%
09:00 +11°C° 0 mm 6 m/s 750 mmHg 68%
10:00 +13°C° 0 mm 6 m/s 750 mmHg 60%
11:00 +14°C° 0 mm 6 m/s 750 mmHg 59%
12:00 +14°C° 0 mm 6 m/s 750 mmHg 58%
13:00 +14°C° 0 mm 6 m/s 750 mmHg 57%
14:00 +14°C° 0 mm 5 m/s 750 mmHg 58%
15:00 +14°C° 0 mm 5 m/s 750 mmHg 58%
16:00 +14°C° 0 mm 5 m/s 750 mmHg 59%
17:00 +13°C° 0.1 mm 4 m/s 751 mmHg 65%
18:00 +12°C° 0.1 mm 3 m/s 751 mmHg 72%
19:00 +12°C° 0.1 mm 2 m/s 751 mmHg 78%
20:00 +10°C° 0 mm 3 m/s 751 mmHg 82%
21:00 +9°C° 0 mm 3 m/s 751 mmHg 85%
22:00 +8°C° 0 mm 3 m/s 751 mmHg 88%
23:00 +7°C° 0 mm 3 m/s 751 mmHg 91%

20 Mai, Jeudi

Heure Température Précipitation Vent Pression Humidité
00:00 +7°C° 0 mm 3 m/s 751 mmHg 93%
01:00 +5°C° 0 mm 3 m/s 751 mmHg 95%
02:00 +5°C° 0 mm 3 m/s 752 mmHg 95%
03:00 +5°C° 0 mm 4 m/s 752 mmHg 96%
04:00 +5°C° 0 mm 4 m/s 752 mmHg 96%
05:00 +6°C° 0 mm 4 m/s 752 mmHg 92%
06:00 +8°C° 0 mm 5 m/s 752 mmHg 88%
07:00 +9°C° 0 mm 5 m/s 752 mmHg 83%
08:00 +10°C° 0.2 mm 5 m/s 752 mmHg 79%
09:00 +11°C° 0.2 mm 6 m/s 752 mmHg 75%
10:00 +13°C° 0.2 mm 6 m/s 752 mmHg 70%
11:00 +14°C° 0.3 mm 6 m/s 752 mmHg 67%
12:00 +14°C° 0.3 mm 6 m/s 752 mmHg 63%
13:00 +14°C° 0.3 mm 5 m/s 752 mmHg 59%
14:00 +14°C° 0.1 mm 5 m/s 751 mmHg 60%
15:00 +14°C° 0.1 mm 5 m/s 751 mmHg 61%
16:00 +14°C° 0.1 mm 5 m/s 751 mmHg 62%
17:00 +13°C° 0.1 mm 4 m/s 751 mmHg 69%
18:00 +12°C° 0.1 mm 4 m/s 750 mmHg 75%
19:00 +11°C° 0.1 mm 3 m/s 750 mmHg 82%
20:00 +10°C° 0 mm 3 m/s 750 mmHg 84%
21:00 +9°C° 0 mm 3 m/s 750 mmHg 87%
22:00 +9°C° 0 mm 3 m/s 749 mmHg 90%
23:00 +9°C° 0.1 mm 3 m/s 749 mmHg 91%
Voir plus

Nous avons besoin de votre consentement

Meteoprog et ses fournisseurs de services peuvent stocker et accéder à des données personnelles telles que des cookies, des identifiants d'appareils ou d'autres technologies similaires sur votre appareil et traiter ces données pour personnaliser le contenu et les publicités, ainsi que pour fournir des fonctionnalités de médias sociaux et analyser le trafic.

  • Stocker et/ou accéder à des informations sur votre appareil

    Des cookies, des identifiants d'appareils ou d'autres informations peuvent être stockés ou accessibles sur votre appareil aux fins indiquées ci-dessus.

  • Annonces et contenus personnalisés, mesure des annonces et des contenus, connaissance de l'audience et développement de produits

    Les annonces et le contenu peuvent être personnalisés en fonction d'un profil. D'autres données peuvent être ajoutées pour mieux personnaliser les annonces et le contenu. Les performances des publicités et du contenu peuvent être mesurées. Il est possible d'obtenir des informations sur le public qui a vu les publicités et le contenu. Ces données peuvent être utilisées pour développer ou améliorer l'expérience de l'utilisateur, les systèmes et les logiciels.

En cliquant sur "J'accepte", vous autorisez l'utilisation de cookies, des identifiants d'appareils, des balises web ou d'autres technologies similaires. Vos paramètres peuvent être modifiés dans le navigateur de votre appareil.

Dans certains cas, des intérêts légitimes peuvent être invoqués plutôt qu'un consentement. Vous pouvez en savoir plus à ce sujet dans notre Politique de confidentialité et de cookies.